K1LBG Weather Reports


time (UTC)temp
F
wind
direction
speed
knots
gust
knots
rain 1hr
in
rain 24hr
in
rain mn
in
humidity
%
barometer
mb
20260507060633 56 321 2.6 9.6 0.00 0.06 0.00 93 1006.3
20260507060129 56 327 2.6 10.4 0.00 0.06 0.00 93 1006.3
20260507055632 56 322 3.5 10.4 0.00 0.06 0.00 93 1006.3
20260507055137 56 350 0.9 10.4 0.00 0.06 0.00 93 1006.5
20260507054629 57 341 3.5 10.4 0.00 0.06 0.00 94 1006.4
20260507054134 57 294 2.6 9.6 0.00 0.06 0.00 94 1006.6
20260507053626 57 336 5.2 9.6 0.00 0.06 0.00 95 1006.5
20260507053131 58 306 2.6 11.3 0.00 0.06 0.00 95 1006.5
20260507052635 58 304 3.5 7.8 0.00 0.06 0.00 96 1006.6
20260507052141 58 336 1.7 5.2 0.00 0.06 0.00 96 1006.5
20260507051631 58 306 0.9 3.5 0.00 0.06 0.00 96 1006.8
20260507051155 58 258 1.7 3.5 0.00 0.06 0.00 96 1006.6
20260507050650 58 265 0.0 6.1 0.00 0.06 0.00 96 1006.5
20260507050152 58 271 0.9 6.1 0.00 0.06 0.00 96 1006.6
20260507045622 58 346 1.7 4.3 0.00 0.06 0.00 96 1006.6
20260507045145 58 235 1.7 7.0 0.00 0.06 0.00 96 1006.8
20260507044635 58 239 2.6 7.0 0.00 0.06 0.00 96 1006.7
20260507044127 58 234 1.7 4.3 0.00 0.06 0.00 96 1006.7
20260507043652 58 246 1.7 6.1 0.00 0.06 0.00 96 1006.6
20260507043158 58 260 0.9 6.1 0.00 0.06 0.00 96 1006.5
20260507042631 58 237 1.7 7.0 0.00 0.06 0.00 96 1006.6
20260507042153 58 259 0.9 4.3 0.00 0.06 0.00 96 1006.6
20260507041625 58 304 0.9 3.5 0.00 0.06 0.00 96 1006.4
20260507041134 58 297 0.9 6.1 0.00 0.06 0.00 96 1006.6
20260507040624 58 240 2.6 7.8 0.00 0.06 0.00 96 1006.7
20260507040130 58 256 1.7 7.8 0.00 0.06 0.06 96 1006.7
20260507035624 58 211 2.6 7.0 0.00 0.06 0.06 96 1006.6
20260507035134 58 259 0.9 5.2 0.00 0.06 0.06 96 1006.6
20260507034648 58 261 1.7 5.2 0.00 0.06 0.06 96 1006.6
20260507034137 58 229 1.7 6.1 0.00 0.06 0.06 96 1006.6
20260507033625 58 250 1.7 9.6 0.00 0.06 0.06 96 1006.6
20260507033131 58 225 4.3 10.4 0.00 0.06 0.06 96 1006.9
20260507032638 58 208 3.5 10.4 0.00 0.06 0.06 96 1006.8
20260507032126 57 200 4.3 8.7 0.00 0.06 0.06 96 1006.7
20260507031639 57 262 2.6 10.4 0.00 0.06 0.06 96 1006.5
20260507031143 57 204 6.1 10.4 0.00 0.06 0.06 96 1006.4
20260507030630 57 218 4.3 9.6 0.00 0.06 0.06 96 1006.6
20260507030139 57 198 4.3 8.7 0.00 0.06 0.06 96 1006.5
20260507025651 57 224 3.5 9.6 0.00 0.06 0.06 96 1006.4
20260507025138 57 247 2.6 9.6 0.00 0.06 0.06 96 1006.5
20260507024624 57 242 3.5 9.6 0.00 0.06 0.06 96 1006.5
20260507024128 57 242 3.5 9.6 0.00 0.06 0.06 96 1006.4
20260507023632 57 211 4.3 7.8 0.00 0.06 0.06 96 1006.4
20260507023121 57 213 3.5 7.8 0.00 0.06 0.06 96 1006.5
20260507022631 57 240 3.5 7.8 0.00 0.06 0.06 96 1006.5
20260507022136 57 243 2.6 8.7 0.00 0.06 0.06 96 1006.6
20260507021652 57 192 5.2 9.6 0.00 0.06 0.06 96 1006.6
20260507021150 57 242 2.6 9.6 0.00 0.06 0.06 96 1006.5
20260507020639 57 180 4.3 9.6 0.00 0.06 0.06 96 1006.3
20260507020132 57 209 4.3 9.6 0.00 0.06 0.06 96 1006.4
20260507015622 57 224 6.1 9.6 0.00 0.06 0.06 96 1006.6
20260507015151 57 205 5.2 9.6 0.00 0.06 0.06 96 1006.6
20260507014635 57 229 4.3 8.7 0.00 0.06 0.06 96 1006.6
20260507014125 57 192 5.2 10.4 0.00 0.06 0.06 96 1006.7
20260507013651 57 219 6.1 10.4 0.00 0.06 0.06 96 1006.6
20260507013122 57 203 5.2 10.4 0.00 0.06 0.06 96 1006.7
20260507012626 57 166 6.1 12.2 0.00 0.06 0.06 96 1006.8
20260507012150 57 218 3.5 12.2 0.00 0.06 0.06 96 1006.9
20260507011635 57 210 6.1 10.4 0.00 0.06 0.06 96 1007.0
20260507011125 57 226 4.3 10.4 0.00 0.06 0.06 96 1007.0
20260507010632 57 231 3.5 10.4 0.00 0.06 0.06 96 1006.9
20260507010122 57 216 7.0 11.3 0.00 0.06 0.06 96 1007.0
20260507005628 56 217 4.3 9.6 0.00 0.06 0.06 96 1007.0
20260507005148 56 219 6.1 10.4 0.00 0.06 0.06 96 1007.0
20260507004636 56 228 6.1 10.4 0.00 0.06 0.06 95 1007.0
20260507004124 56 229 4.3 8.7 0.00 0.06 0.06 95 1007.0
20260507003618 56 173 3.5 12.2 0.00 0.06 0.06 95 1006.9
20260507003123 56 242 7.8 11.3 0.00 0.06 0.06 95 1006.9
20260507002633 56 210 7.0 13.9 0.01 0.06 0.06 95 1006.8
20260507002155 56 223 6.1 12.2 0.01 0.06 0.06 95 1006.8
20260507001623 56 238 7.0 13.0 0.01 0.06 0.06 95 1006.9
20260507001136 56 197 7.8 15.6 0.01 0.06 0.06 95 1006.9
20260507000625 56 215 3.5 14.8 0.01 0.06 0.06 95 1006.8
20260507000148 56 205 5.2 14.8 0.01 0.06 0.06 95 1006.8
20260506235622 56 245 6.1 13.9 0.01 0.06 0.06 95 1006.8
20260506235131 56 207 5.2 15.6 0.02 0.06 0.06 95 1006.7
20260506234621 56 210 7.0 15.6 0.02 0.06 0.06 95 1006.7
20260506234143 56 230 5.2 11.3 0.02 0.06 0.06 95 1006.6
20260506233653 56 219 4.3 12.2 0.02 0.06 0.06 95 1006.6
20260506233143 56 199 6.1 14.8 0.03 0.06 0.06 95 1006.5
20260506232634 57 219 4.3 14.8 0.02 0.05 0.05 95 1006.6
20260506232124 57 209 5.2 11.3 0.02 0.05 0.05 94 1006.7
20260506231647 57 202 4.3 11.3 0.02 0.05 0.05 94 1006.7
20260506231138 57 197 2.6 12.2 0.02 0.05 0.05 94 1006.8
20260506230624 57 228 3.5 13.9 0.02 0.05 0.05 94 1006.8
20260506230147 57 254 4.3 13.9 0.02 0.05 0.05 94 1006.9
20260506225636 57 190 3.5 12.2 0.02 0.05 0.05 94 1006.8
20260506225122 57 210 4.3 12.2 0.02 0.04 0.04 94 1006.7
20260506224648 57 180 2.6 12.2 0.02 0.04 0.04 94 1006.7
20260506224136 57 191 4.3 15.6 0.02 0.04 0.04 94 1006.6
20260506223635 57 225 4.3 12.2 0.01 0.03 0.03 94 1006.6
20260506223153 58 207 4.3 13.0 0.02 0.03 0.03 94 1006.7
20260506222700 58 192 6.1 13.0 0.02 0.03 0.03 94 1006.6
20260506222128 58 205 4.3 13.0 0.02 0.03 0.03 94 1006.7
20260506221650 58 204 5.2 13.0 0.02 0.03 0.03 93 1006.8
20260506221122 58 170 3.5 12.2 0.02 0.03 0.03 93 1006.9
20260506220641 58 360 6.1 13.0 0.02 0.03 0.03 93 1007.0
20260506220131 58 200 6.1 10.4 0.02 0.03 0.03 93 1007.1
20260506215623 59 193 3.5 12.2 0.02 0.03 0.03 92 1007.1
20260506215145 59 191 7.8 13.9 0.01 0.02 0.02 92 1007.1
20260506214636 59 212 6.1 15.6 0.01 0.02 0.02 92 1007.0
20260506214147 60 209 3.5 15.6 0.01 0.02 0.02 91 1007.1
20260506213649 60 200 3.5 18.2 0.01 0.02 0.02 91 1007.2
20260506213154 60 204 10.4 18.2 0.00 0.01 0.01 91 1007.3
20260506212645 60 237 7.8 18.2 0.00 0.01 0.01 90 1007.3
20260506212132 60 198 10.4 19.1 0.00 0.01 0.01 90 1007.2
20260506211635 60 216 9.6 19.1 0.00 0.01 0.01 90 1007.4
20260506211158 60 228 8.7 19.1 0.00 0.01 0.01 90 1007.4
20260506210627 60 242 5.2 17.4 0.00 0.01 0.01 91 1007.5
20260506210156 60 244 7.8 17.4 0.00 0.01 0.01 91 1007.5
20260506205623 60 161 6.1 18.2 0.00 0.01 0.01 91 1007.4
20260506205127 60 234 7.0 18.2 0.00 0.01 0.01 91 1007.4
20260506204652 60 222 8.7 18.2 0.00 0.01 0.01 91 1007.5
20260506204140 60 222 7.0 20.0 0.00 0.01 0.01 90 1007.6
20260506203629 60 219 6.1 20.0 0.01 0.01 0.01 90 1007.5
20260506203155 61 245 7.0 20.0 0.01 0.01 0.01 90 1007.7
20260506202645 61 232 5.2 20.0 0.01 0.01 0.01 90 1007.7
20260506202155 61 210 6.1 16.5 0.01 0.01 0.01 90 1007.7
20260506201658 61 198 10.4 20.0 0.01 0.01 0.01 89 1007.6
20260506201126 61 228 8.7 20.0 0.01 0.01 0.01 89 1007.8
20260506200650 61 198 9.6 20.0 0.01 0.01 0.01 89 1007.8
20260506200141 61 226 10.4 20.0 0.01 0.01 0.01 89 1007.9
20260506195626 61 190 7.8 21.7 0.01 0.01 0.01 88 1007.7
20260506195149 62 232 6.1 21.7 0.01 0.01 0.01 88 1007.8
20260506194656 62 218 11.3 20.9 0.01 0.01 0.01 87 1007.7
20260506194123 62 210 7.0 15.6 0.01 0.01 0.01 87 1007.8
20260506193626 62 213 7.0 16.5 0.00 0.00 0.00 85 1007.9
20260506193128 63 232 6.1 15.6 0.00 0.00 0.00 84 1007.9
20260506192651 63 225 3.5 19.1 0.00 0.00 0.00 84 1008.0
20260506192138 63 202 10.4 19.1 0.00 0.00 0.00 82 1007.9
20260506191632 64 196 7.8 20.9 0.00 0.00 0.00 81 1007.9
20260506191155 64 219 10.4 28.7 0.00 0.00 0.00 79 1008.0
20260506190700 65 219 11.3 20.0 0.00 0.00 0.00 77 1008.0
20260506190127 65 261 7.8 20.0 0.00 0.00 0.00 76 1008.0
20260506185631 65 243 7.8 20.0 0.00 0.00 0.00 75 1008.1
20260506185158 65 221 13.9 20.0 0.00 0.00 0.00 75 1008.2
20260506184640 66 198 10.4 21.7 0.00 0.00 0.00 75 1008.0
20260506184127 66 222 7.8 20.0 0.00 0.00 0.00 75 1007.9
20260506183640 66 196 11.3 25.2 0.00 0.00 0.00 74 1008.1
20260506183146 66 202 11.3 25.2 0.00 0.00 0.00 73 1008.1
20260506182632 66 236 10.4 19.1 0.00 0.00 0.00 73 1008.2
20260506182123 67 205 9.6 26.1 0.00 0.00 0.00 73 1008.3
20260506181630 67 230 10.4 18.2 0.00 0.00 0.00 72 1008.4
20260506181133 67 191 10.4 25.2 0.00 0.00 0.00 72 1008.2
20260506180624 67 224 13.0 25.2 0.00 0.00 0.00 71 1008.3
20260506180147 68 214 13.0 22.6 0.00 0.00 0.00 70 1008.3
20260506175635 68 193 10.4 22.6 0.00 0.00 0.00 71 1008.5
20260506175123 69 200 11.3 20.0 0.00 0.00 0.00 69 1008.5
20260506174641 69 167 6.1 23.5 0.00 0.00 0.00 70 1008.5
20260506174135 69 213 15.6 23.5 0.00 0.00 0.00 69 1008.6
20260506173627 70 221 10.4 26.1 0.00 0.00 0.00 68 1008.7
20260506173147 70 213 12.2 26.1 0.00 0.00 0.00 67 1008.8
20260506172624 70 165 9.6 23.5 0.00 0.00 0.00 69 1008.9
20260506172127 70 207 10.4 23.5 0.00 0.00 0.00 70 1008.9
20260506171630 70 167 13.0 30.4 0.00 0.00 0.00 68 1008.7
20260506171124 71 196 6.1 30.4 0.00 0.00 0.00 66 1008.8
20260506170633 71 169 11.3 25.2 0.00 0.00 0.00 67 1008.6
20260506170154 71 186 13.0 25.2 0.00 0.00 0.00 67 1008.6
20260506165627 71 203 10.4 24.3 0.00 0.00 0.00 69 1008.7
20260506165124 70 199 9.6 23.5 0.00 0.00 0.00 70 1008.8
20260506164627 70 238 10.4 23.5 0.00 0.00 0.00 69 1009.0
20260506164158 70 225 11.3 21.7 0.00 0.00 0.00 68 1008.9
20260506163639 70 165 7.8 18.2 0.00 0.00 0.00 68 1009.1
20260506163128 70 164 9.6 20.9 0.00 0.00 0.00 70 1009.2
20260506162630 70 180 11.3 20.9 0.00 0.00 0.00 70 1009.2
20260506162134 70 199 7.0 20.0 0.00 0.00 0.00 70 1009.4
20260506161622 70 180 7.0 17.4 0.00 0.00 0.00 69 1009.3
20260506161210 70 219 9.6 18.2 0.00 0.00 0.00 69 1009.5
20260506160621 70 216 7.0 15.6 0.00 0.00 0.00 70 1009.5
20260506160124 70 207 6.1 18.2 0.00 0.00 0.00 70 1009.5
20260506155647 70 190 7.8 20.9 0.00 0.00 0.00 70 1009.6
20260506155213 70 175 8.7 20.9 0.00 0.00 0.00 70 1009.8
20260506154640 70 204 8.7 20.9 0.00 0.00 0.00 70 1009.8
20260506154131 70 196 7.8 25.2 0.00 0.00 0.00 70 1009.8
20260506153620 70 192 10.4 25.2 0.00 0.00 0.00 69 1009.8
20260506153145 71 207 9.6 16.5 0.00 0.00 0.00 69 1009.8
20260506152642 70 219 8.7 16.5 0.00 0.00 0.00 69 1010.1
20260506152127 70 268 4.3 17.4 0.00 0.00 0.00 72 1010.1
20260506151630 70 213 10.4 20.9 0.00 0.00 0.00 70 1010.1
20260506151123 69 209 12.2 20.9 0.00 0.00 0.00 71 1010.1
20260506150633 69 213 9.6 20.9 0.00 0.00 0.00 71 1010.1
20260506150122 68 200 6.1 19.1 0.00 0.00 0.00 71 1010.3
20260506145628 68 184 9.6 19.1 0.00 0.00 0.00 71 1010.2
20260506145135 68 265 11.3 19.1 0.00 0.00 0.00 72 1010.2
20260506144625 68 201 8.7 20.0 0.00 0.00 0.00 71 1010.2
20260506144128 68 196 10.4 24.3 0.00 0.00 0.00 72 1010.1
20260506143636 68 219 12.2 22.6 0.00 0.00 0.00 71 1010.1
20260506143124 69 231 9.6 19.1 0.00 0.00 0.00 70 1010.0
20260506142627 68 220 12.2 21.7 0.00 0.00 0.00 72 1009.9
20260506142133 68 195 8.7 21.7 0.00 0.00 0.00 72 1010.0
20260506141652 68 250 12.2 21.7 0.00 0.00 0.00 71 1010.1
20260506141214 68 197 12.2 21.7 0.00 0.00 0.00 72 1010.1
20260506140641 68 225 12.2 20.9 0.00 0.00 0.00 73 1010.1
20260506140134 68 213 9.6 22.6 0.00 0.00 0.00 72 1010.0
20260506135627 67 193 7.0 22.6 0.00 0.00 0.00 73 1010.0
20260506135146 67 215 6.1 18.2 0.00 0.00 0.00 76 1009.9
20260506134653 66 171 6.1 18.2 0.00 0.00 0.00 75 1010.0
20260506134122 67 178 9.6 18.2 0.00 0.00 0.00 75 1010.1
20260506133628 67 210 8.7 17.4 0.00 0.00 0.00 75 1010.3
20260506133136 67 205 8.7 18.2 0.00 0.00 0.00 75 1010.6
20260506132621 66 160 3.5 19.1 0.00 0.00 0.00 75 1010.6
20260506132200 66 193 6.1 19.1 0.00 0.00 0.00 76 1010.5
20260506131626 66 167 5.2 15.6 0.00 0.00 0.00 77 1010.6
20260506131128 65 219 8.7 20.0 0.00 0.00 0.00 76 1010.7
20260506130635 65 143 10.4 20.9 0.00 0.00 0.00 78 1010.6
20260506130122 65 215 10.4 20.9 0.00 0.00 0.00 79 1010.6
20260506125640 64 187 7.0 13.9 0.00 0.00 0.00 79 1010.7
20260506125127 64 247 7.8 14.8 0.00 0.00 0.00 81 1010.7
20260506124622 63 211 7.0 18.2 0.00 0.00 0.00 81 1010.7
20260506124145 63 187 9.6 19.1 0.00 0.00 0.00 81 1010.7
20260506123636 63 251 9.6 19.1 0.00 0.00 0.00 81 1010.7
20260506123121 63 223 9.6 18.2 0.00 0.00 0.00 82 1010.7
20260506122645 63 232 10.4 18.2 0.00 0.00 0.00 82 1010.6
20260506122138 63 200 6.1 15.6 0.00 0.00 0.00 81 1010.6
20260506121630 62 200 6.1 20.0 0.00 0.00 0.00 84 1010.5
20260506121152 62 188 7.0 20.0 0.00 0.00 0.00 84 1010.6
20260506120630 61 169 5.2 13.0 0.00 0.00 0.00 84 1010.7
20260506120143 61 226 6.1 17.4 0.00 0.00 0.00 86 1010.9
20260506115644 60 201 8.7 17.4 0.00 0.00 0.00 87 1011.0
20260506115131 60 214 7.8 16.5 0.00 0.00 0.00 86 1011.0
20260506114715 60 168 7.0 17.4 0.00 0.00 0.00 86 1011.1
20260506114125 60 223 7.8 17.4 0.00 0.00 0.00 86 1011.0
20260506113631 60 227 7.8 13.9 0.00 0.00 0.00 87 1011.2
20260506113153 60 207 7.8 15.6 0.00 0.00 0.00 87 1011.1
20260506112623 60 235 7.8 15.6 0.00 0.00 0.00 87 1011.2
20260506112132 59 193 7.8 14.8 0.00 0.00 0.00 88 1011.2
20260506111635 59 169 6.1 15.6 0.00 0.00 0.00 89 1011.1
20260506111138 58 198 7.0 13.9 0.00 0.00 0.00 90 1011.0
20260506110705 58 196 6.1 13.9 0.00 0.00 0.00 90 1011.1
20260506110117 57 203 7.8 11.3 0.00 0.00 0.00 90 1011.1
20260506105634 57 169 6.1 11.3 0.00 0.00 0.00 90 1011.1
20260506105122 57 217 6.1 11.3 0.00 0.00 0.00 89 1011.1
20260506104629 57 203 6.1 12.2 0.00 0.00 0.00 89 1011.1
20260506104136 57 221 5.2 10.4 0.00 0.00 0.00 89 1011.1
20260506103623 57 192 5.2 15.6 0.00 0.00 0.00 90 1011.2
20260506103146 57 186 5.2 15.6 0.00 0.00 0.00 90 1011.1
20260506102632 57 202 7.0 14.8 0.00 0.00 0.00 90 1011.0
20260506102121 57 200 4.3 14.8 0.00 0.00 0.00 90 1011.1
20260506101700 57 178 4.3 10.4 0.00 0.00 0.00 89 1011.1
20260506101131 57 165 3.5 8.7 0.00 0.00 0.00 89 1011.0
20260506100638 57 180 3.5 13.0 0.00 0.00 0.00 89 1011.0
20260506100123 57 173 6.1 13.0 0.00 0.00 0.00 89 1010.8
20260506095633 57 224 7.0 13.0 0.00 0.00 0.00 89 1010.9
20260506095152 57 200 6.1 13.0 0.00 0.00 0.00 89 1010.8
20260506094626 57 192 5.2 13.9 0.00 0.00 0.00 89 1010.7
20260506094150 57 186 3.5 10.4 0.00 0.00 0.00 89 1010.7
20260506093640 58 196 1.7 12.2 0.00 0.00 0.00 89 1010.8
20260506093129 58 184 7.0 12.2 0.00 0.00 0.00 88 1010.7
20260506092633 58 204 7.0 11.3 0.00 0.00 0.00 88 1010.8
20260506092138 58 215 4.3 13.0 0.00 0.00 0.00 88 1010.7
20260506091626 58 202 6.1 13.0 0.00 0.00 0.00 88 1010.7
20260506091132 58 188 4.3 13.0 0.00 0.00 0.00 88 1010.8
20260506090639 58 209 7.0 11.3 0.00 0.00 0.00 88 1010.8
20260506090125 58 242 6.1 16.5 0.00 0.00 0.00 88 1010.9
20260506085704 58 202 7.8 16.5 0.00 0.00 0.00 88 1011.0
20260506085129 58 273 6.1 13.9 0.00 0.00 0.00 87 1011.0
20260506084639 58 179 9.6 13.9 0.00 0.00 0.00 87 1011.0
20260506084149 58 243 6.1 13.0 0.00 0.00 0.00 87 1011.0
20260506083652 58 229 5.2 13.0 0.00 0.00 0.00 87 1011.1
20260506083142 58 196 6.1 13.9 0.00 0.00 0.00 87 1011.1
20260506082632 58 253 4.3 13.9 0.00 0.00 0.00 87 1011.0
20260506082122 58 251 5.2 12.2 0.00 0.00 0.00 87 1011.0
20260506081644 58 174 6.1 13.9 0.00 0.00 0.00 87 1011.0
20260506081134 58 213 6.1 13.9 0.00 0.00 0.00 87 1011.1
20260506080640 58 242 5.2 12.2 0.00 0.00 0.00 86 1011.0
20260506080143 58 205 4.3 12.2 0.00 0.00 0.00 86 1011.0
20260506073140 59 233 6.1 14.8 0.00 0.00 0.00 85 1010.9
20260506072627 59 163 6.1 16.5 0.00 0.00 0.00 85 1010.9
20260506072120 59 183 8.7 16.5 0.00 0.00 0.00 85 1010.9
20260506071643 59 230 7.0 14.8 0.00 0.00 0.00 85 1010.9
20260506071129 59 194 7.0 14.8 0.00 0.00 0.00 85 1010.8
20260506070621 59 198 7.8 16.5 0.00 0.00 0.00 85 1010.8
20260506070147 59 210 8.7 16.5 0.00 0.00 0.00 85 1010.8
20260506062132 59 225 6.1 14.8 0.00 0.00 0.00 83 1010.8
20260506061637 59 213 7.8 14.8 0.00 0.00 0.00 83 1010.8
20260506061140 59 223 6.1 16.5 0.00 0.00 0.00 82 1010.8